QPF
0.00 0.00 0.00 0.00 0.00 0.00 0.00 0.00 0.00 0.00 0.00 0.01 0.00 0.01 0.01 0.01 0.01 0.02 0.04 0.05 0.06 0.06 0.06 0.06 0.06 0.05 0.05 0.06 0.05 0.04 0.04 0.03 0.05 0.08 0.13 0.13 0.13 0.12 0.10 0.09 0.06 0.03 0.04
0.00 0.00 0.00 0.00 0.00 0.00 0.00 0.00 0.00 0.00 0.00 0.00 0.00 0.01 0.01 0.01 0.02 0.04 0.05 0.04 0.03 0.04 0.05 0.05 0.06 0.07 0.06 0.06 0.05 0.03 0.03 0.03 0.04 0.08 0.10 0.10 0.11 0.09 0.07 0.05 0.03 0.02 0.03
0.00 0.00 0.00 0.00 0.00 0.00 0.00 0.00 0.00 0.00 0.00 0.00 0.00 0.01 0.01 0.02 0.03 0.03 0.03 0.03 0.02 0.02 0.04 0.06 0.07 0.08 0.08 0.07 0.06 0.05 0.04 0.04 0.03 0.05 0.06 0.08 0.09 0.07 0.05 0.03 0.03 0.02 0.01
0.00 0.00 0.00 0.00 0.00 0.00 0.00 0.00 0.00 0.00 0.00 0.00 0.00 0.01 0.02 0.02 0.03 0.03 0.03 0.04 0.03 0.02 0.03 0.05 0.07 0.08 0.08 0.09 0.08 0.07 0.04 0.03 0.03 0.03 0.04 0.05 0.05 0.05 0.04 0.03 0.02 0.01 0.02
0.00 0.00 0.00 0.00 0.00 0.00 0.00 0.00 0.00 0.00 0.00 0.00 0.01 0.02 0.03 0.03 0.04 0.03 0.03 0.03 0.04 0.03 0.03 0.03 0.04 0.05 0.06 0.07 0.08 0.08 0.06 0.05 0.03 0.03 0.03 0.03 0.03 0.03 0.03 0.02 0.03 0.03 0.02
0.00 0.00 0.00 0.00 0.00 0.00 0.00 0.00 0.00 0.00 0.00 0.01 0.01 0.01 0.03 0.03 0.04 0.03 0.03 0.03 0.04 0.05 0.04 0.02 0.02 0.03 0.05 0.05 0.08 0.10 0.09 0.08 0.06 0.04 0.04 0.04 0.03 0.03 0.03 0.02 0.03 0.03 0.02
0.00 0.00 0.00 0.00 0.00 0.00 0.00 0.00 0.00 0.00 0.01 0.01 0.01 0.01 0.02 0.03 0.04 0.04 0.04 0.03 0.03 0.04 0.05 0.04 0.02 0.02 0.03 0.04 0.05 0.08 0.09 0.09 0.08 0.06 0.05 0.05 0.04 0.03 0.03 0.03 0.02 0.03 0.03
0.00 0.00 0.00 0.00 0.00 0.00 0.00 0.00 0.00 0.01 0.01 0.01 0.01 0.01 0.02 0.03 0.04 0.04 0.05 0.04 0.04 0.05 0.06 0.06 0.04 0.03 0.03 0.03 0.03 0.05 0.06 0.06 0.09 0.10 0.08 0.07 0.06 0.04 0.04 0.03 0.02 0.02 0.02
0.00 0.00 0.00 0.00 0.00 0.00 0.00 0.00 0.00 0.00 0.01 0.00 0.00 0.01 0.01 0.02 0.02 0.03 0.04 0.04 0.04 0.05 0.07 0.08 0.07 0.06 0.05 0.05 0.03 0.03 0.04 0.05 0.06 0.09 0.10 0.08 0.06 0.05 0.04 0.04 0.03 0.03 0.02
0.00 0.00 0.00 0.00 0.00 0.00 0.00 0.00 0.00 0.00 0.01 0.01 0.01 0.00 0.01 0.01 0.01 0.02 0.02 0.03 0.03 0.03 0.03 0.05 0.07 0.07 0.07 0.06 0.05 0.04 0.04 0.04 0.05 0.06 0.09 0.08 0.07 0.07 0.05 0.05 0.05 0.04 0.04
0.00 0.00 0.00 0.00 0.00 0.00 0.00 0.00 0.00 0.01 0.01 0.01 0.01 0.00 0.00 0.00 0.01 0.01 0.01 0.02 0.03 0.02 0.02 0.04 0.07 0.09 0.08 0.07 0.05 0.05 0.04 0.03 0.03 0.04 0.06 0.08 0.08 0.08 0.08 0.07 0.06 0.05 0.04
0.00 0.00 0.00 0.00 0.00 0.00 0.00 0.00 0.00 0.00 0.01 0.01 0.01 0.01 0.01 0.01 0.01 0.01 0.01 0.02 0.02 0.03 0.03 0.02 0.05 0.07 0.07 0.06 0.04 0.05 0.04 0.04 0.03 0.04 0.04 0.05 0.07 0.08 0.09 0.11 0.10 0.07 0.06
0.00 0.00 0.00 0.00 0.00 0.00 0.00 0.00 0.00 0.00 0.00 0.02 0.01 0.01 0.00 0.00 0.00 0.00 0.01 0.01 0.02 0.02 0.02 0.02 0.03 0.05 0.06 0.05 0.04 0.05 0.05 0.03 0.03 0.03 0.04 0.03 0.04 0.06 0.09 0.12 0.13 0.12 0.11
0.00 0.00 0.00 0.00 0.00 0.00 0.00 0.00 0.00 0.00 0.00 0.00 0.00 0.00 0.00 0.00 0.00 0.01 0.01 0.01 0.01 0.01 0.02 0.02 0.02 0.03 0.03 0.04 0.04 0.04 0.05 0.05 0.03 0.03 0.03 0.03 0.02 0.03 0.05 0.08 0.10 0.11 0.11
0.00 0.00 0.00 0.00 0.00 0.00 0.00 0.00 0.00 0.00 0.00 0.00 0.00 0.00 0.00 0.00 0.00 0.01 0.01 0.01 0.01 0.00 0.01 0.01 0.02 0.03 0.03 0.04 0.04 0.03 0.04 0.05 0.04 0.03 0.03 0.02 0.02 0.02 0.02 0.04 0.05 0.07 0.08
0.00 0.00 0.00 0.00 0.01 0.01 0.00 0.00 0.00 0.00 0.00 0.00 0.00 0.00 0.00 0.01 0.00 0.00 0.00 0.00 0.01 0.01 0.01 0.01 0.02 0.03 0.03 0.04 0.05 0.03 0.04 0.04 0.03 0.03 0.02 0.02 0.02 0.01 0.02 0.03 0.03 0.04 0.05
0.00 0.00 0.01 0.00 0.00 0.01 0.01 0.00 0.00 0.00 0.00 0.00 0.00 0.00 0.00 0.00 0.00 0.00 0.00 0.00 0.01 0.01 0.01 0.02 0.01 0.03 0.04 0.04 0.04 0.02 0.03 0.04 0.03 0.02 0.02 0.01 0.01 0.02 0.02 0.02 0.03 0.03 0.04
0.00 0.00 0.01 0.01 0.00 0.01 0.01 0.00 0.00 0.00 0.00 0.00 0.00 0.00 0.00 0.00 0.00 0.00 0.00 0.00 0.00 0.01 0.01 0.02 0.03 0.04 0.04 0.04 0.05 0.04 0.03 0.04 0.03 0.02 0.02 0.01 0.01 0.02 0.03 0.03 0.03 0.03 0.03
0.00 0.00 0.00 0.00 0.00 0.01 0.01 0.00 0.00 0.00 0.00 0.00 0.00 0.00 0.00 0.00 0.00 0.00 0.00 0.00 0.00 0.01 0.01 0.02 0.03 0.04 0.04 0.04 0.04 0.05 0.04 0.03 0.02 0.02 0.02 0.01 0.02 0.02 0.02 0.02 0.02 0.03 0.04
0.00 0.00 0.00 0.00 0.01 0.01 0.01 0.00 0.00 0.00 0.00 0.00 0.00 0.00 0.00 0.00 0.00 0.00 0.00 0.00 0.00 0.01 0.01 0.02 0.04 0.04 0.04 0.04 0.04 0.04 0.03 0.03 0.02 0.02 0.02 0.02 0.02 0.03 0.03 0.03 0.02 0.02 0.02
0.00 0.00 0.00 0.01 0.01 0.01 0.01 0.01 0.00 0.00 0.00 0.00 0.00 0.00 0.00 0.00 0.00 0.00 0.00 0.01 0.01 0.02 0.01 0.02 0.04 0.05 0.04 0.03 0.03 0.03 0.03 0.03 0.04 0.03 0.03 0.03 0.02 0.02 0.02 0.03 0.04 0.03 0.03
0.00 0.00 0.00 0.01 0.01 0.01 0.01 0.01 0.00 0.00 0.00 0.00 0.00 0.00 0.00 0.00 0.00 0.00 0.01 0.01 0.01 0.02 0.03 0.02 0.03 0.04 0.04 0.03 0.03 0.03 0.03 0.02 0.02 0.02 0.03 0.04 0.03 0.02 0.02 0.02 0.03 0.04 0.05
0.00 0.00 0.00 0.00 0.01 0.01 0.01 0.01 0.00 0.00 0.00 0.00 0.00 0.00 0.00 0.00 0.00 0.00 0.00 0.01 0.01 0.01 0.02 0.01 0.01 0.01 0.02 0.03 0.04 0.04 0.03 0.01 0.01 0.02 0.03 0.03 0.04 0.03 0.02 0.03 0.04 0.05 0.06
0.00 0.00 0.00 0.00 0.01 0.01 0.01 0.01 0.01 0.00 0.00 0.00 0.00 0.00 0.00 0.00 0.00 0.00 0.01 0.01 0.01 0.01 0.01 0.01 0.01 0.02 0.01 0.03 0.04 0.04 0.04 0.03 0.02 0.02 0.03 0.03 0.03 0.03 0.02 0.03 0.04 0.06 0.06
0.00 0.00 0.00 0.00 0.00 0.01 0.02 0.02 0.01 0.00 0.00 0.00 0.00 0.00 0.00 0.00 0.00 0.01 0.01 0.01 0.01 0.01 0.01 0.01 0.01 0.02 0.02 0.03 0.04 0.05 0.05 0.05 0.03 0.02 0.02 0.02 0.03 0.04 0.04 0.03 0.03 0.04 0.05
0.00 0.00 0.00 0.00 0.00 0.01 0.02 0.03 0.02 0.01 0.00 0.00 0.00 0.00 0.00 0.00 0.01 0.01 0.02 0.02 0.02 0.02 0.02 0.02 0.01 0.02 0.02 0.04 0.08 0.06 0.05 0.05 0.03 0.03 0.02 0.02 0.03 0.05 0.06 0.05 0.05 0.05 0.04
MSLP
1015.32 1015.31 1015.25 1015.16 1015.04 1014.88 1014.69 1014.48 1014.23 1013.95 1013.65 1013.34 1013.04 1012.77 1012.56 1012.42 1012.36 1012.37 1012.44 1012.55 1012.68 1012.79 1012.89 1012.97 1013.01 1013.03 1013.04 1013.04 1013.05 1013.07 1013.12 1013.20 1013.32 1013.47 1013.66 1013.86 1014.08 1014.29 1014.48 1014.65 1014.80 1014.93 1015.05
1015.49 1015.45 1015.40 1015.31 1015.20 1015.05 1014.88 1014.68 1014.45 1014.19 1013.91 1013.62 1013.34 1013.09 1012.88 1012.73 1012.65 1012.63 1012.66 1012.74 1012.84 1012.96 1013.06 1013.15 1013.22 1013.26 1013.28 1013.28 1013.27 1013.28 1013.30 1013.36 1013.47 1013.63 1013.83 1014.07 1014.32 1014.57 1014.80 1015.00 1015.16 1015.29 1015.41
1015.66 1015.62 1015.56 1015.48 1015.39 1015.26 1015.12 1014.94 1014.73 1014.50 1014.25 1014.00 1013.75 1013.51 1013.31 1013.14 1013.03 1012.96 1012.94 1012.96 1013.02 1013.10 1013.18 1013.27 1013.35 1013.41 1013.45 1013.46 1013.46 1013.46 1013.48 1013.52 1013.62 1013.77 1013.97 1014.22 1014.50 1014.78 1015.04 1015.26 1015.44 1015.59 1015.71
1015.85 1015.80 1015.75 1015.69 1015.62 1015.53 1015.41 1015.25 1015.08 1014.87 1014.65 1014.43 1014.20 1013.99 1013.79 1013.62 1013.46 1013.35 1013.26 1013.21 1013.19 1013.21 1013.26 1013.33 1013.40 1013.48 1013.53 1013.57 1013.59 1013.60 1013.62 1013.66 1013.75 1013.88 1014.08 1014.32 1014.60 1014.89 1015.16 1015.41 1015.62 1015.79 1015.93
1016.05 1016.00 1015.97 1015.94 1015.90 1015.84 1015.74 1015.61 1015.45 1015.27 1015.08 1014.88 1014.68 1014.49 1014.30 1014.12 1013.94 1013.77 1013.62 1013.49 1013.39 1013.34 1013.32 1013.35 1013.40 1013.47 1013.54 1013.61 1013.65 1013.69 1013.72 1013.76 1013.84 1013.96 1014.14 1014.36 1014.62 1014.91 1015.19 1015.46 1015.69 1015.90 1016.08
1016.23 1016.20 1016.20 1016.20 1016.20 1016.16 1016.09 1015.98 1015.83 1015.67 1015.49 1015.32 1015.15 1014.98 1014.81 1014.63 1014.44 1014.23 1014.02 1013.82 1013.64 1013.50 1013.41 1013.38 1013.39 1013.44 1013.52 1013.59 1013.66 1013.72 1013.77 1013.83 1013.90 1014.01 1014.16 1014.35 1014.59 1014.86 1015.14 1015.41 1015.68 1015.92 1016.15
1016.37 1016.37 1016.40 1016.44 1016.47 1016.46 1016.41 1016.32 1016.19 1016.04 1015.88 1015.73 1015.59 1015.45 1015.31 1015.15 1014.97 1014.75 1014.50 1014.24 1013.99 1013.76 1013.59 1013.48 1013.43 1013.44 1013.49 1013.57 1013.65 1013.73 1013.79 1013.86 1013.93 1014.02 1014.15 1014.31 1014.52 1014.76 1015.03 1015.31 1015.59 1015.87 1016.15
1016.46 1016.48 1016.54 1016.61 1016.67 1016.70 1016.67 1016.60 1016.49 1016.35 1016.22 1016.10 1015.99 1015.90 1015.80 1015.68 1015.53 1015.32 1015.06 1014.76 1014.45 1014.15 1013.89 1013.69 1013.56 1013.51 1013.52 1013.56 1013.63 1013.71 1013.79 1013.86 1013.93 1014.01 1014.11 1014.25 1014.42 1014.63 1014.88 1015.15 1015.45 1015.76 1016.07
1016.48 1016.51 1016.59 1016.68 1016.77 1016.82 1016.83 1016.78 1016.70 1016.59 1016.49 1016.41 1016.35 1016.31 1016.28 1016.21 1016.11 1015.93 1015.68 1015.37 1015.02 1014.66 1014.32 1014.03 1013.81 1013.68 1013.61 1013.61 1013.64 1013.70 1013.77 1013.83 1013.90 1013.97 1014.05 1014.16 1014.30 1014.48 1014.70 1014.97 1015.26 1015.59 1015.93
1016.45 1016.47 1016.54 1016.65 1016.75 1016.83 1016.87 1016.85 1016.80 1016.74 1016.68 1016.65 1016.65 1016.67 1016.70 1016.70 1016.65 1016.53 1016.31 1016.01 1015.65 1015.25 1014.84 1014.47 1014.16 1013.93 1013.78 1013.70 1013.68 1013.69 1013.73 1013.78 1013.84 1013.89 1013.96 1014.05 1014.17 1014.32 1014.52 1014.76 1015.04 1015.37 1015.72
1016.39 1016.38 1016.43 1016.53 1016.64 1016.73 1016.79 1016.81 1016.80 1016.78 1016.77 1016.79 1016.84 1016.92 1017.01 1017.08 1017.10 1017.03 1016.86 1016.60 1016.24 1015.83 1015.39 1014.95 1014.57 1014.24 1014.00 1013.84 1013.74 1013.70 1013.70 1013.72 1013.75 1013.80 1013.85 1013.92 1014.02 1014.15 1014.32 1014.53 1014.80 1015.10 1015.45
1016.35 1016.29 1016.30 1016.36 1016.45 1016.54 1016.62 1016.67 1016.69 1016.71 1016.74 1016.80 1016.90 1017.03 1017.16 1017.28 1017.36 1017.35 1017.24 1017.02 1016.71 1016.31 1015.86 1015.40 1014.96 1014.57 1014.24 1014.00 1013.83 1013.72 1013.67 1013.65 1013.66 1013.69 1013.73 1013.79 1013.87 1013.98 1014.12 1014.31 1014.54 1014.82 1015.14
1016.38 1016.25 1016.20 1016.21 1016.27 1016.34 1016.41 1016.47 1016.52 1016.56 1016.61 1016.70 1016.81 1016.95 1017.11 1017.26 1017.37 1017.42 1017.37 1017.21 1016.95 1016.60 1016.18 1015.72 1015.27 1014.85 1014.47 1014.17 1013.93 1013.77 1013.66 1013.60 1013.59 1013.60 1013.62 1013.67 1013.74 1013.83 1013.95 1014.11 1014.31 1014.55 1014.82
1016.53 1016.33 1016.20 1016.15 1016.14 1016.17 1016.22 1016.27 1016.31 1016.36 1016.41 1016.49 1016.59 1016.71 1016.86 1017.01 1017.13 1017.20 1017.20 1017.11 1016.92 1016.64 1016.29 1015.89 1015.46 1015.04 1014.66 1014.32 1014.05 1013.84 1013.69 1013.60 1013.55 1013.54 1013.56 1013.60 1013.65 1013.73 1013.83 1013.96 1014.12 1014.32 1014.55
1016.82 1016.55 1016.35 1016.21 1016.14 1016.12 1016.12 1016.14 1016.15 1016.17 1016.19 1016.22 1016.27 1016.35 1016.45 1016.56 1016.66 1016.74 1016.78 1016.74 1016.63 1016.45 1016.18 1015.87 1015.51 1015.14 1014.78 1014.45 1014.17 1013.94 1013.77 1013.65 1013.58 1013.55 1013.55 1013.58 1013.62 1013.69 1013.77 1013.87 1014.00 1014.16 1014.34
1017.27 1016.94 1016.66 1016.45 1016.31 1016.22 1016.16 1016.13 1016.10 1016.06 1016.02 1015.98 1015.95 1015.95 1015.97 1016.01 1016.07 1016.13 1016.17 1016.19 1016.15 1016.05 1015.89 1015.68 1015.42 1015.13 1014.83 1014.54 1014.27 1014.05 1013.87 1013.74 1013.66 1013.62 1013.61 1013.62 1013.66 1013.70 1013.77 1013.84 1013.94 1014.07 1014.21
1017.84 1017.47 1017.13 1016.86 1016.65 1016.50 1016.38 1016.28 1016.19 1016.08 1015.97 1015.84 1015.72 1015.61 1015.53 1015.49 1015.48 1015.49 1015.52 1015.55 1015.56 1015.54 1015.47 1015.36 1015.20 1015.00 1014.78 1014.56 1014.34 1014.14 1013.98 1013.85 1013.77 1013.73 1013.71 1013.71 1013.73 1013.76 1013.81 1013.86 1013.93 1014.03 1014.14
1018.48 1018.08 1017.71 1017.40 1017.14 1016.93 1016.76 1016.60 1016.44 1016.26 1016.07 1015.86 1015.64 1015.43 1015.25 1015.10 1015.00 1014.95 1014.94 1014.96 1014.98 1015.00 1015.00 1014.97 1014.89 1014.78 1014.63 1014.48 1014.31 1014.16 1014.03 1013.93 1013.86 1013.82 1013.80 1013.80 1013.81 1013.83 1013.85 1013.89 1013.93 1014.00 1014.09
1019.11 1018.71 1018.34 1018.00 1017.71 1017.46 1017.24 1017.04 1016.82 1016.59 1016.32 1016.03 1015.73 1015.43 1015.15 1014.91 1014.72 1014.59 1014.52 1014.49 1014.49 1014.51 1014.53 1014.53 1014.50 1014.45 1014.37 1014.26 1014.16 1014.05 1013.96 1013.89 1013.85 1013.83 1013.82 1013.82 1013.83 1013.84 1013.86 1013.87 1013.90 1013.95 1014.02
1019.65 1019.28 1018.92 1018.58 1018.28 1018.01 1017.76 1017.52 1017.26 1016.98 1016.67 1016.33 1015.97 1015.60 1015.25 1014.92 1014.65 1014.44 1014.28 1014.18 1014.12 1014.10 1014.08 1014.07 1014.05 1014.01 1013.96 1013.89 1013.83 1013.77 1013.73 1013.70 1013.69 1013.70 1013.71 1013.74 1013.75 1013.77 1013.78 1013.78 1013.80 1013.83 1013.88
1020.07 1019.73 1019.39 1019.07 1018.77 1018.50 1018.23 1017.96 1017.67 1017.37 1017.03 1016.65 1016.26 1015.86 1015.46 1015.08 1014.74 1014.44 1014.20 1014.01 1013.86 1013.75 1013.66 1013.59 1013.52 1013.46 1013.40 1013.35 1013.31 1013.28 1013.28 1013.30 1013.34 1013.39 1013.44 1013.49 1013.54 1013.57 1013.58 1013.59 1013.60 1013.62 1013.67
1020.32 1020.02 1019.72 1019.42 1019.12 1018.84 1018.55 1018.26 1017.96 1017.64 1017.28 1016.91 1016.51 1016.09 1015.68 1015.27 1014.88 1014.52 1014.20 1013.91 1013.66 1013.44 1013.25 1013.08 1012.94 1012.82 1012.72 1012.65 1012.61 1012.61 1012.63 1012.69 1012.78 1012.88 1012.98 1013.08 1013.17 1013.23 1013.27 1013.30 1013.32 1013.34 1013.38
1020.41 1020.15 1019.87 1019.58 1019.29 1018.99 1018.68 1018.37 1018.05 1017.72 1017.37 1017.00 1016.61 1016.21 1015.80 1015.39 1014.98 1014.57 1014.18 1013.81 1013.45 1013.12 1012.82 1012.54 1012.30 1012.10 1011.94 1011.83 1011.77 1011.77 1011.82 1011.91 1012.04 1012.19 1012.36 1012.51 1012.65 1012.76 1012.85 1012.91 1012.96 1013.00 1013.05
1020.37 1020.14 1019.87 1019.58 1019.27 1018.94 1018.61 1018.27 1017.92 1017.57 1017.22 1016.87 1016.51 1016.13 1015.75 1015.35 1014.94 1014.51 1014.08 1013.64 1013.20 1012.77 1012.36 1011.98 1011.64 1011.35 1011.13 1010.96 1010.87 1010.85 1010.90 1011.01 1011.17 1011.37 1011.59 1011.80 1012.01 1012.19 1012.34 1012.46 1012.56 1012.64 1012.72
1020.25 1020.02 1019.75 1019.44 1019.09 1018.73 1018.35 1017.97 1017.59 1017.22 1016.87 1016.53 1016.19 1015.85 1015.49 1015.12 1014.72 1014.29 1013.83 1013.35 1012.86 1012.37 1011.88 1011.42 1011.00 1010.64 1010.34 1010.12 1009.98 1009.93 1009.96 1010.06 1010.24 1010.47 1010.72 1011.00 1011.27 1011.53 1011.76 1011.96 1012.13 1012.28 1012.42
1020.09 1019.84 1019.55 1019.20 1018.81 1018.39 1017.96 1017.53 1017.12 1016.73 1016.36 1016.03 1015.70 1015.38 1015.06 1014.71 1014.33 1013.91 1013.45 1012.96 1012.44 1011.91 1011.38 1010.87 1010.40 1009.98 1009.63 1009.35 1009.16 1009.06 1009.05 1009.13 1009.30 1009.53 1009.81 1010.13 1010.46 1010.79 1011.12 1011.41 1011.68 1011.92 1012.14
Thickness
5730 5728 5726 5724 5722 5721 5719 5717 5716 5715 5714 5715 5715 5715 5716 5717 5718 5720 5722 5725 5727 5729 5732 5734 5737 5739 5741 5743 5745 5747 5749 5751 5754 5755 5755 5756 5758 5759 5759 5759 5759 5759 5760
5728 5726 5723 5721 5719 5718 5716 5714 5712 5711 5710 5711 5711 5712 5712 5714 5715 5717 5719 5721 5724 5726 5729 5732 5734 5736 5739 5741 5743 5744 5747 5748 5750 5752 5753 5754 5755 5756 5756 5756 5757 5757 5758
5726 5723 5721 5719 5717 5715 5714 5712 5710 5708 5707 5707 5707 5708 5709 5711 5712 5714 5716 5718 5720 5723 5726 5729 5732 5734 5736 5739 5740 5742 5744 5746 5747 5749 5750 5751 5752 5753 5754 5754 5755 5755 5755
5724 5721 5718 5716 5714 5713 5711 5708 5706 5704 5703 5702 5702 5704 5705 5707 5709 5711 5713 5715 5717 5720 5723 5726 5729 5732 5734 5736 5738 5740 5741 5743 5745 5746 5747 5748 5749 5750 5751 5752 5752 5753 5753
5722 5719 5716 5714 5712 5710 5708 5706 5703 5700 5698 5698 5699 5701 5702 5703 5705 5708 5709 5712 5714 5717 5720 5723 5726 5729 5731 5733 5735 5737 5739 5741 5742 5744 5745 5746 5747 5748 5749 5750 5750 5751 5751
5720 5717 5715 5712 5710 5707 5704 5702 5700 5698 5697 5696 5697 5697 5698 5700 5702 5703 5706 5709 5711 5714 5717 5720 5723 5726 5728 5731 5733 5735 5737 5739 5740 5742 5743 5744 5745 5746 5747 5748 5748 5749 5749
5718 5715 5713 5710 5708 5704 5702 5700 5698 5696 5694 5694 5692 5691 5694 5696 5698 5699 5702 5705 5708 5711 5714 5716 5719 5722 5725 5728 5730 5732 5734 5736 5738 5739 5740 5742 5743 5744 5745 5745 5746 5746 5747
5717 5714 5711 5708 5706 5703 5700 5698 5695 5692 5691 5691 5688 5684 5682 5686 5691 5696 5697 5700 5703 5707 5710 5713 5715 5719 5722 5724 5727 5730 5732 5733 5735 5737 5738 5739 5740 5742 5743 5743 5744 5744 5744
5715 5713 5710 5708 5705 5702 5699 5697 5694 5691 5688 5689 5688 5683 5678 5676 5681 5688 5692 5695 5698 5702 5705 5709 5712 5715 5718 5721 5723 5726 5728 5730 5732 5734 5736 5737 5738 5739 5740 5741 5742 5742 5742
5715 5712 5710 5707 5704 5701 5699 5697 5694 5691 5689 5686 5686 5685 5683 5681 5678 5678 5685 5690 5694 5697 5701 5705 5707 5710 5714 5717 5720 5722 5725 5727 5729 5731 5732 5734 5736 5737 5738 5739 5739 5740 5740
5714 5712 5709 5707 5704 5701 5699 5697 5694 5692 5689 5686 5684 5683 5683 5681 5680 5676 5677 5682 5688 5693 5697 5700 5703 5706 5710 5712 5715 5718 5721 5723 5726 5728 5729 5731 5733 5735 5736 5737 5737 5738 5738
5712 5711 5709 5706 5704 5701 5699 5697 5694 5692 5689 5687 5685 5683 5681 5679 5678 5676 5675 5677 5680 5687 5693 5696 5699 5702 5706 5708 5711 5714 5717 5719 5722 5724 5726 5728 5730 5732 5733 5734 5735 5736 5736
5709 5709 5708 5706 5704 5702 5700 5697 5694 5692 5690 5687 5685 5684 5683 5682 5681 5679 5676 5676 5677 5682 5687 5692 5696 5698 5702 5704 5707 5710 5713 5715 5718 5720 5723 5725 5727 5728 5730 5731 5733 5733 5734
5709 5709 5707 5705 5704 5702 5700 5697 5694 5692 5690 5688 5686 5685 5683 5683 5682 5681 5679 5676 5674 5676 5681 5686 5691 5695 5698 5700 5703 5705 5708 5711 5714 5716 5718 5721 5723 5724 5726 5728 5729 5730 5731
5710 5708 5707 5704 5702 5701 5699 5696 5693 5691 5690 5688 5686 5685 5683 5683 5683 5682 5681 5679 5674 5671 5674 5681 5685 5691 5694 5696 5699 5701 5703 5706 5709 5711 5714 5716 5718 5719 5721 5723 5724 5726 5727
5708 5706 5705 5703 5701 5699 5697 5695 5693 5691 5689 5687 5686 5684 5683 5682 5682 5682 5681 5679 5677 5674 5672 5678 5682 5687 5690 5693 5695 5697 5699 5701 5704 5706 5709 5711 5713 5715 5717 5718 5720 5721 5722
5705 5703 5702 5700 5699 5697 5696 5693 5691 5690 5687 5686 5685 5683 5682 5681 5680 5680 5679 5678 5676 5674 5672 5675 5679 5683 5686 5688 5690 5693 5695 5696 5699 5701 5703 5706 5708 5709 5711 5713 5715 5716 5717
5702 5701 5699 5697 5696 5695 5693 5691 5689 5688 5685 5683 5682 5681 5680 5680 5678 5677 5676 5675 5674 5674 5672 5672 5675 5678 5681 5684 5686 5687 5690 5692 5694 5696 5698 5700 5702 5704 5706 5708 5709 5711 5712
5698 5697 5696 5694 5693 5692 5690 5689 5687 5685 5683 5682 5680 5679 5678 5676 5675 5674 5674 5673 5672 5673 5671 5670 5671 5674 5676 5679 5680 5682 5684 5686 5689 5691 5693 5695 5697 5699 5700 5702 5704 5705 5707
5694 5693 5692 5690 5690 5689 5688 5686 5684 5682 5681 5679 5678 5677 5675 5674 5672 5671 5670 5670 5669 5668 5667 5666 5667 5668 5670 5673 5674 5674 5675 5679 5682 5686 5688 5689 5691 5693 5695 5697 5698 5699 5701
5690 5688 5686 5685 5685 5685 5684 5682 5681 5679 5677 5675 5674 5673 5672 5671 5670 5669 5667 5665 5664 5663 5661 5661 5662 5663 5664 5665 5667 5669 5670 5672 5675 5678 5680 5683 5685 5687 5688 5690 5692 5693 5695
5683 5682 5680 5679 5678 5678 5679 5678 5677 5674 5672 5670 5668 5668 5667 5666 5665 5664 5664 5663 5661 5658 5657 5656 5657 5658 5661 5663 5664 5664 5664 5664 5665 5671 5672 5675 5677 5679 5682 5684 5686 5687 5689
5676 5674 5673 5672 5670 5671 5672 5672 5671 5668 5666 5663 5662 5660 5660 5660 5658 5656 5656 5657 5656 5655 5654 5653 5654 5656 5657 5660 5659 5659 5659 5660 5662 5666 5666 5667 5670 5672 5675 5677 5679 5681 5682
5668 5666 5665 5664 5663 5663 5664 5664 5663 5661 5658 5656 5654 5652 5650 5649 5648 5647 5647 5647 5647 5648 5648 5649 5649 5652 5655 5657 5657 5658 5658 5657 5658 5660 5662 5660 5663 5665 5668 5670 5672 5674 5675
5660 5659 5657 5656 5654 5654 5654 5654 5654 5651 5649 5646 5645 5643 5640 5639 5639 5637 5635 5635 5637 5639 5641 5642 5644 5646 5649 5651 5652 5650 5649 5649 5650 5652 5654 5655 5656 5657 5659 5662 5665 5666 5668
5652 5651 5649 5646 5644 5643 5644 5643 5642 5639 5637 5635 5633 5631 5629 5627 5626 5625 5622 5623 5624 5628 5630 5631 5634 5638 5640 5643 5645 5646 5646 5644 5644 5646 5649 5649 5649 5649 5650 5653 5656 5658 5660